Regional Weather Roundup
Issued by NWS Albany, NY

Home | Current Version | Previous Version | Text Only | Print | Product List | Glossary On
Versions: 1 2 3 4 5 6 7 8 9 10 11 12 13 14 15 16 17 18 19 20 21 22 23 24 25 26 27 28
000
ASUS41 KALY 190810
RWRALY

NEW YORK STATE HOURLY WEATHER ROUNDUP
NATIONAL WEATHER SERVICE ALBANY NY
300 AM EST SUN FEB 19 2017

NOTE: "FAIR" INDICATES FEW OR NO CLOUDS BELOW 12,000 FEET WITH NO
SIGNIFICANT WEATHER AND/OR NO OBSTRUCTIONS TO VISIBILITY.

NYZ032-033-038>043-046>054-057>066-NYZ062>081-082-084-190900-
EAST


CITY           SKY/WX    TMP DP  RH WIND       PRES   REMARKS
ALBANY         PTCLDY    46  35  65 W12       29.67R
GLENS FALLS    CLEAR     35  29  78 N5        29.63R WCI  31
POUGHKEEPSIE   CLOUDY    42  31  64 CALM      29.67R
NEWBURGH       PTCLDY    46  34  61 W5        29.70R
MONTGOMERY     CLOUDY    33  28  81 CALM      29.68R
WHITE PLAINS   CLOUDY    52  30  43 W7        29.67R
ISLIP          MOCLDY    44  35  70 SW7       29.68R
NEW YORK CITY  CLOUDY    60  32  34 SW8       29.69R
CENTRAL PARK   CLOUDY    57  32  38 VRB5      29.72R
$$

NYZ005>009-017-018-044>046-055-056-190900-
CENTRAL


CITY           SKY/WX    TMP DP  RH WIND       PRES   REMARKS
FULTON         CLEAR     43  36  76 W8        29.70R
SYRACUSE       PTCLDY    42  35  76 W9        29.70R
ROME           CLEAR     24  24 100 NW3       29.71R
ELMIRA         CLEAR     34  29  82 SW8       29.75R WCI  27
BINGHAMTON     CLEAR     42  34  73 W7        29.72R
MONTICELLO     CLOUDY    45  34  65 W10       29.70S
$$

NYZ026>034-041>043-087-190900-
NORTH


CITY           SKY/WX    TMP DP  RH WIND       PRES   REMARKS
WATERTOWN      CLEAR     37  35  92 SW7       29.67R WCI  32
FORT DRUM      NOT AVBL
OGDENSBURG     FAIR      38  35  86 SW6       29.63R WCI  34
MASSENA        PTCLDY    41  35  79 SW14      29.61R
SARANAC LAKE   CLOUDY    38  35  89 SW13      29.58S WCI  30
PLATTSBURGH    MOCLDY    46  34  62 S6        29.57R
$$

NYZ001>004-010>016-019>021-085-190900-
WEST


CITY           SKY/WX    TMP DP  RH WIND       PRES   REMARKS
NIAGARA FALLS  CLEAR     34  30  85 S7        29.75R WCI  28
BUFFALO        PTCLDY    38  34  85 SW12      29.76R WCI  30
DUNKIRK        CLEAR     47  38  71 SW9       29.79R
JAMESTOWN      CLEAR     46  36  66 W7        29.78R
WELLSVILLE     CLEAR     48  37  65 W10       29.77R
ROCHESTER      CLEAR     40  36  86 W7        29.73R
PENN YAN       CLEAR     39  32  76 S5        29.74R
$$

             KEY
       WCI = WIND CHILL INDEX
       VSB = VISIBILITY
       HX  = HEAT INDEX
$$




USA.gov is the U.S. government's official web portal to all federal, state and local government web resources and services.